BTK728 WARA-WADL

Flight info

Callsign BTK728
Flight time 0h 51m
Altitude 35000
Route WARA/35 SBR1C SBR W34 AGUNG AGUNG1H WADL/13
Aircraft A20N/M-VGDW/C

Departure

Time 2026-04-13 13:34
Airport Abdul Rachman Saleh Airport (WARA)

Arrival

Time 2026-04-13 14:25
Airport Lombok International Airport (WADL)
Time Latitude Longitude Altitude Speed Heading
2026-04-13 13:25 -7.93667 112.71275 1729 ft 1 kts 168°
2026-04-13 13:25 -7.93664 112.71275 1729 ft 0 kts 169°
2026-04-13 13:28 -7.93670 112.71275 1729 ft 2 kts 169°
2026-04-13 13:29 -7.93695 112.71280 1729 ft 4 kts 169°
2026-04-13 13:29 -7.93738 112.71289 1728 ft 7 kts 166°
2026-04-13 13:29 -7.93797 112.71304 1728 ft 9 kts 166°
2026-04-13 13:29 -7.93837 112.71346 1727 ft 9 kts 86°
2026-04-13 13:30 -7.93825 112.71407 1728 ft 8 kts 77°
2026-04-13 13:30 -7.93812 112.71464 1730 ft 7 kts 76°
2026-04-13 13:30 -7.93801 112.71511 1731 ft 5 kts 77°
2026-04-13 13:30 -7.93793 112.71543 1733 ft 3 kts 77°
2026-04-13 13:31 -7.93788 112.71564 1733 ft 2 kts 77°
2026-04-13 13:31 -7.93785 112.71581 1733 ft 1 kts 76°
2026-04-13 13:31 -7.93781 112.71596 1734 ft 3 kts 76°
2026-04-13 13:31 -7.93780 112.71626 1735 ft 5 kts 118°
2026-04-13 13:32 -7.93833 112.71658 1735 ft 11 kts 163°
2026-04-13 13:32 -7.93920 112.71696 1734 ft 14 kts 144°
2026-04-13 13:32 -7.93974 112.71706 1733 ft 4 kts 291°
2026-04-13 13:32 -7.93943 112.71686 1734 ft 4 kts 343°
2026-04-13 13:33 -7.93941 112.71686 1734 ft 0 kts 343°
2026-04-13 13:33 -7.93707 112.71628 1736 ft 73 kts 346°
2026-04-13 13:33 -7.92968 112.71447 1750 ft 140 kts 346°
2026-04-13 13:33 -7.91882 112.71182 2006 ft 171 kts 347°
2026-04-13 13:34 -7.90735 112.70882 2697 ft 171 kts 346°
2026-04-13 13:34 -7.89632 112.70512 3479 ft 171 kts 330°
2026-04-13 13:34 -7.88891 112.69552 3913 ft 188 kts 283°
2026-04-13 13:34 -7.88929 112.68211 4341 ft 205 kts 245°
2026-04-13 13:35 -7.89883 112.67119 4795 ft 220 kts 205°
2026-04-13 13:35 -7.91427 112.66890 5267 ft 234 kts 167°
2026-04-13 13:35 -7.93044 112.67345 5785 ft 250 kts 162°
2026-04-13 13:35 -7.94771 112.67852 6295 ft 268 kts 163°
2026-04-13 13:36 -7.96607 112.68389 6927 ft 280 kts 163°
2026-04-13 13:36 -7.98494 112.68941 7778 ft 283 kts 163°
2026-04-13 13:36 -8.00376 112.69488 8637 ft 284 kts 163°
2026-04-13 13:36 -8.02261 112.70033 9455 ft 286 kts 163°
2026-04-13 13:37 -8.04196 112.70541 10228 ft 290 kts 167°
2026-04-13 13:37 -8.06205 112.71067 10783 ft 302 kts 158°
2026-04-13 13:37 -8.08024 112.72229 11121 ft 320 kts 135°
2026-04-13 13:37 -8.09236 112.74130 11444 ft 338 kts 109°
2026-04-13 13:38 -8.09488 112.76528 11990 ft 350 kts 83°
2026-04-13 13:38 -8.08737 112.78852 12692 ft 355 kts 63°
2026-04-13 13:38 -8.07295 112.80877 13361 ft 360 kts 45°
2026-04-13 13:38 -8.05273 112.82372 14001 ft 365 kts 27°
2026-04-13 13:39 -8.02863 112.83160 14663 ft 369 kts
2026-04-13 13:39 -8.00278 112.83137 15333 ft 372 kts 349°
2026-04-13 13:39 -7.97826 112.82275 15959 ft 375 kts 330°
2026-04-13 13:39 -7.95717 112.80733 16612 ft 377 kts 320°
2026-04-13 13:40 -7.93701 112.79017 17248 ft 378 kts 320°
2026-04-13 13:40 -7.91682 112.77302 17843 ft 381 kts 320°
2026-04-13 13:40 -7.89654 112.75606 18384 ft 386 kts 321°
2026-04-13 13:40 -7.87551 112.73896 18891 ft 391 kts 324°
2026-04-13 13:41 -7.85106 112.72659 19355 ft 394 kts 345°
2026-04-13 13:41 -7.82374 112.72382 19868 ft 396 kts
2026-04-13 13:41 -7.79608 112.72675 20391 ft 399 kts
2026-04-13 13:41 -7.76835 112.72997 20870 ft 403 kts
2026-04-13 13:42 -7.74051 112.73311 21353 ft 407 kts
2026-04-13 13:42 -7.71224 112.73621 21828 ft 410 kts
2026-04-13 13:42 -7.68364 112.73927 22294 ft 414 kts
2026-04-13 13:42 -7.65462 112.74232 22765 ft 418 kts
2026-04-13 13:43 -7.62551 112.74536 23226 ft 422 kts
2026-04-13 13:43 -7.59621 112.74841 23680 ft 425 kts
2026-04-13 13:43 -7.56674 112.75146 24125 ft 429 kts
2026-04-13 13:43 -7.53688 112.75455 24557 ft 433 kts
2026-04-13 13:44 -7.50654 112.75770 24992 ft 436 kts
2026-04-13 13:44 -7.47656 112.76103 25409 ft 439 kts 10°
2026-04-13 13:44 -7.44728 112.77029 25770 ft 440 kts 28°
2026-04-13 13:44 -7.42252 112.78841 26182 ft 439 kts 47°
2026-04-13 13:45 -7.40464 112.81310 26567 ft 438 kts 65°
2026-04-13 13:45 -7.39508 112.84199 26929 ft 437 kts 82°
2026-04-13 13:45 -7.39457 112.87215 27286 ft 437 kts 99°
2026-04-13 13:45 -7.40074 112.90212 27681 ft 438 kts 104°
2026-04-13 13:46 -7.40761 112.93202 28029 ft 441 kts 104°
2026-04-13 13:46 -7.41447 112.96224 28410 ft 444 kts 104°
2026-04-13 13:46 -7.42118 112.99241 28922 ft 443 kts 104°
2026-04-13 13:46 -7.42775 113.02240 29491 ft 440 kts 104°
2026-04-13 13:47 -7.43430 113.05253 30099 ft 436 kts 104°
2026-04-13 13:47 -7.44061 113.08182 30686 ft 433 kts 103°
2026-04-13 13:47 -7.44697 113.11145 31278 ft 429 kts 103°
2026-04-13 13:47 -7.45317 113.14043 31855 ft 425 kts 103°
2026-04-13 13:48 -7.45939 113.16958 32418 ft 422 kts 103°
2026-04-13 13:48 -7.46544 113.19796 32991 ft 418 kts 103°
2026-04-13 13:48 -7.47152 113.22649 33534 ft 416 kts 103°
2026-04-13 13:48 -7.47763 113.25520 33934 ft 417 kts 103°
2026-04-13 13:49 -7.48367 113.28358 34237 ft 420 kts 102°
2026-04-13 13:49 -7.48983 113.31253 34552 ft 422 kts 102°
2026-04-13 13:49 -7.49591 113.34118 34873 ft 423 kts 102°
2026-04-13 13:50 -7.50826 113.39932 34945 ft 425 kts 102°
2026-04-13 13:50 -7.52059 113.45742 34955 ft 425 kts 102°
2026-04-13 13:51 -7.53293 113.51556 34960 ft 425 kts 102°
2026-04-13 13:51 -7.54525 113.57360 34961 ft 425 kts 102°
2026-04-13 13:52 -7.55753 113.63156 34963 ft 425 kts 102°
2026-04-13 13:52 -7.56985 113.68971 34958 ft 426 kts 102°
2026-04-13 13:53 -7.58215 113.74783 34954 ft 425 kts 102°
2026-04-13 13:53 -7.59447 113.80608 34952 ft 425 kts 102°
2026-04-13 13:54 -7.60675 113.86420 34962 ft 426 kts 102°
2026-04-13 13:54 -7.61911 113.92275 34959 ft 426 kts 102°
2026-04-13 13:55 -7.63142 113.98109 34957 ft 426 kts 102°
2026-04-13 13:55 -7.64365 114.03908 34955 ft 426 kts 102°
2026-04-13 13:56 -7.65596 114.09744 34950 ft 426 kts 102°
2026-04-13 13:56 -7.66817 114.15549 34953 ft 426 kts 102°
2026-04-13 13:57 -7.68050 114.21415 34961 ft 426 kts 102°
2026-04-13 13:57 -7.69270 114.27235 34954 ft 427 kts 102°
2026-04-13 13:58 -7.70499 114.33099 34951 ft 427 kts 102°
2026-04-13 13:58 -7.71731 114.38943 34942 ft 427 kts 103°
2026-04-13 13:59 -7.72988 114.44790 34936 ft 427 kts 103°
2026-04-13 13:59 -7.74231 114.50584 34933 ft 427 kts 103°
2026-04-13 14:00 -7.75483 114.56444 34927 ft 428 kts 102°
2026-04-13 14:00 -7.76727 114.62288 34935 ft 428 kts 102°
2026-04-13 14:01 -7.77979 114.68172 34938 ft 428 kts 102°
2026-04-13 14:01 -7.78601 114.71098 34709 ft 430 kts 102°
2026-04-13 14:01 -7.79224 114.74036 33992 ft 431 kts 102°
2026-04-13 14:01 -7.79848 114.76974 33298 ft 431 kts 102°
2026-04-13 14:02 -7.80472 114.79917 32610 ft 431 kts 103°
2026-04-13 14:02 -7.81093 114.82849 31970 ft 431 kts 103°
2026-04-13 14:02 -7.81725 114.85829 31245 ft 433 kts 103°
2026-04-13 14:02 -7.82352 114.88789 30492 ft 435 kts 103°
2026-04-13 14:03 -7.82983 114.91763 29716 ft 438 kts 103°
2026-04-13 14:03 -7.83613 114.94736 28921 ft 441 kts 104°
2026-04-13 14:03 -7.84260 114.97786 28072 ft 443 kts 104°
2026-04-13 14:03 -7.84903 115.00812 27243 ft 445 kts 104°
2026-04-13 14:04 -7.85548 115.03842 26502 ft 445 kts 104°
2026-04-13 14:04 -7.86182 115.06837 25968 ft 439 kts 103°
2026-04-13 14:04 -7.86815 115.09827 25423 ft 434 kts 103°
2026-04-13 14:04 -7.87442 115.12794 24877 ft 430 kts 103°
2026-04-13 14:05 -7.88056 115.15700 24333 ft 426 kts 103°
2026-04-13 14:05 -7.88672 115.18615 23780 ft 422 kts 103°
2026-04-13 14:05 -7.89281 115.21503 23236 ft 418 kts 103°
2026-04-13 14:05 -7.89882 115.24350 22697 ft 415 kts 103°
2026-04-13 14:06 -7.90480 115.27183 22166 ft 412 kts 103°
2026-04-13 14:06 -7.91066 115.29963 21652 ft 409 kts 103°
2026-04-13 14:06 -7.91655 115.32752 21117 ft 406 kts 103°
2026-04-13 14:06 -7.92241 115.35532 20572 ft 404 kts 102°
2026-04-13 14:07 -7.92817 115.38262 20030 ft 402 kts 102°
2026-04-13 14:07 -7.93398 115.41027 19480 ft 400 kts 102°
2026-04-13 14:07 -7.93970 115.43749 18936 ft 397 kts 102°
2026-04-13 14:07 -7.94542 115.46468 18392 ft 395 kts 102°
2026-04-13 14:08 -7.95103 115.49137 17853 ft 392 kts 102°
2026-04-13 14:08 -7.95666 115.51817 17312 ft 390 kts 102°
2026-04-13 14:08 -7.96222 115.54470 16773 ft 387 kts 102°
2026-04-13 14:08 -7.96773 115.57106 16237 ft 385 kts 102°
2026-04-13 14:09 -7.97323 115.59732 15700 ft 382 kts 102°
2026-04-13 14:09 -7.97871 115.62347 15163 ft 379 kts 102°
2026-04-13 14:09 -7.98412 115.64922 14634 ft 377 kts 102°
2026-04-13 14:09 -7.99063 115.67464 14098 ft 374 kts 109°
2026-04-13 14:10 -8.00063 115.69881 13706 ft 365 kts 117°
2026-04-13 14:10 -8.01303 115.72081 13721 ft 364 kts 121°
2026-04-13 14:10 -8.02610 115.74252 13742 ft 364 kts 122°
2026-04-13 14:10 -8.03932 115.76427 13767 ft 364 kts 122°
2026-04-13 14:11 -8.05268 115.78638 13786 ft 364 kts 121°
2026-04-13 14:11 -8.06564 115.80795 13806 ft 364 kts 121°
2026-04-13 14:11 -8.07889 115.83006 13813 ft 364 kts 121°
2026-04-13 14:11 -8.09185 115.85174 13422 ft 366 kts 121°
2026-04-13 14:12 -8.10497 115.87367 12879 ft 364 kts 122°
2026-04-13 14:12 -8.11831 115.89520 12350 ft 361 kts 127°
2026-04-13 14:12 -8.13694 115.91202 11799 ft 358 kts 151°
2026-04-13 14:12 -8.16041 115.91952 11260 ft 356 kts 173°
2026-04-13 14:13 -8.18487 115.92001 10807 ft 352 kts 179°
2026-04-13 14:13 -8.20942 115.91978 10533 ft 341 kts 179°
2026-04-13 14:13 -8.23270 115.91966 10351 ft 328 kts 179°
2026-04-13 14:14 -8.27678 115.91983 10032 ft 304 kts 178°
2026-04-13 14:14 -8.29782 115.91999 9770 ft 298 kts 178°
2026-04-13 14:14 -8.31839 115.92016 9389 ft 296 kts 178°
2026-04-13 14:14 -8.33893 115.92050 9024 ft 293 kts 174°
2026-04-13 14:15 -8.35858 115.92503 8654 ft 288 kts 156°
2026-04-13 14:15 -8.37610 115.93480 8314 ft 283 kts 146°
2026-04-13 14:15 -8.39243 115.94559 7980 ft 280 kts 144°
2026-04-13 14:15 -8.40857 115.95644 7640 ft 278 kts 144°
2026-04-13 14:16 -8.42465 115.96718 7289 ft 276 kts 144°
2026-04-13 14:16 -8.44077 115.97784 6941 ft 274 kts 145°
2026-04-13 14:16 -8.45664 115.98827 6606 ft 272 kts 145°
2026-04-13 14:16 -8.47253 115.99870 6266 ft 270 kts 144°
2026-04-13 14:17 -8.48803 116.00887 6081 ft 261 kts 144°
2026-04-13 14:17 -8.50296 116.01862 6060 ft 246 kts 144°
2026-04-13 14:17 -8.51690 116.02773 6037 ft 231 kts 144°
2026-04-13 14:17 -8.53021 116.03642 6012 ft 221 kts 144°
2026-04-13 14:18 -8.54305 116.04482 5845 ft 222 kts 144°
2026-04-13 14:18 -8.55610 116.05339 5560 ft 221 kts 143°
2026-04-13 14:18 -8.56894 116.06180 5281 ft 220 kts 143°
2026-04-13 14:18 -8.58185 116.07026 4996 ft 220 kts 143°
2026-04-13 14:19 -8.59470 116.07868 4712 ft 219 kts 143°
2026-04-13 14:19 -8.60644 116.08816 4476 ft 213 kts 130°
2026-04-13 14:19 -8.61603 116.09943 4451 ft 210 kts 126°
2026-04-13 14:19 -8.62533 116.11094 4450 ft 211 kts 126°
2026-04-13 14:20 -8.63449 116.12233 4326 ft 208 kts 125°
2026-04-13 14:20 -8.64341 116.13345 4153 ft 198 kts 126°
2026-04-13 14:20 -8.65164 116.14369 4026 ft 181 kts 125°
2026-04-13 14:20 -8.65947 116.15346 3464 ft 179 kts 124°
2026-04-13 14:21 -8.66718 116.16312 2896 ft 178 kts 124°
2026-04-13 14:21 -8.67491 116.17278 2384 ft 173 kts 124°
2026-04-13 14:21 -8.68210 116.18172 2180 ft 153 kts 125°
2026-04-13 14:21 -8.68844 116.18958 2126 ft 136 kts 126°
2026-04-13 14:22 -8.69422 116.19682 1960 ft 131 kts 126°
2026-04-13 14:22 -8.69993 116.20395 1792 ft 130 kts 125°
2026-04-13 14:22 -8.70563 116.21107 1630 ft 130 kts 125°
2026-04-13 14:22 -8.71136 116.21819 1460 ft 130 kts 126°
2026-04-13 14:23 -8.71707 116.22530 1294 ft 129 kts 126°
2026-04-13 14:23 -8.72270 116.23229 1138 ft 129 kts 127°
2026-04-13 14:23 -8.72841 116.23937 969 ft 129 kts 127°
2026-04-13 14:23 -8.73402 116.24641 819 ft 128 kts 127°
2026-04-13 14:24 -8.73963 116.25343 639 ft 128 kts 128°
2026-04-13 14:24 -8.74525 116.26046 475 ft 127 kts 129°
2026-04-13 14:24 -8.75084 116.26733 330 ft 126 kts 129°
2026-04-13 14:24 -8.75548 116.27308 319 ft 80 kts 129°
2026-04-13 14:25 -8.75791 116.27612 320 ft 32 kts 129°
2026-04-13 14:25 -8.75914 116.27763 323 ft 26 kts 129°
2026-04-13 14:25 -8.76033 116.27806 323 ft 19 kts 216°
2026-04-13 14:25 -8.76130 116.27731 323 ft 16 kts 217°
2026-04-13 14:26 -8.76181 116.27669 323 ft 10 kts 274°
2026-04-13 14:26 -8.76140 116.27599 322 ft 12 kts 308°
2026-04-13 14:26 -8.76094 116.27540 321 ft 11 kts 309°
2026-04-13 14:26 -8.76065 116.27489 320 ft 5 kts 246°
2026-04-13 14:27 -8.76096 116.27460 320 ft 7 kts 219°
2026-04-13 14:27 -8.76124 116.27438 319 ft 4 kts 219°
2026-04-13 14:27 -8.76125 116.27438 319 ft 0 kts 219°